Regional Weather Roundup
Issued by NWS

Home | Current Version | Previous Version | Graphics & Text | Print | Product List | Glossary On
Versions: 1 2 3 4 5 6 7 8 9 10 11 12 13 14 15 16 17 18 19 20 21 22 23 24 25 26 27 28 29 30 31 32 33 34 35 36 37 38 39 40 41 42 43 44 45 46 47 48 49 50
000
ASUS43 KLOT 030110
RWRIL

ILLINOIS REGIONAL WEATHER ROUNDUP
NATIONAL WEATHER SERVICE CHICAGO/ROMEOVILLE IL
700 PM CST MON MAR 02 2015

NOTE: "FAIR" INDICATES FEW OR NO CLOUDS BELOW 12,000 FEET WITH NO
SIGNIFICANT WEATHER AND/OR OBSTRUCTIONS TO VISIBILITY.

* THESE STATIONS ARE NOT UNDER NWS QUALITY CONTROL. THEY ALSO MAY NOT
  REPORT WEATHER SUCH AS PRECIPITATION OR FOG.

ILZ001-002-007-009-015-016-024-030200-
NORTHWEST ILLINOIS

CITY           SKY/WX    TMP DP  RH WIND       PRES   REMARKS
MOLINE         CLOUDY    27  17  66 SE7       30.32F WCI  19
STERLING*      CLOUDY    27  18  69 SE7       30.34F WCI  19
SAVANNA*       CLOUDY    26  19  74 S6        30.34F WCI  19
$$

ILZ003-004-008-010-011-017-018-030200-
NORTH CENTRAL ILLINOIS

CITY           SKY/WX    TMP DP  RH WIND       PRES   REMARKS
ROCKFORD       CLOUDY    25  16  68 S8        30.37S WCI  16
FREEPORT*      CLOUDY    24  18  77 S8        30.36R WCI  15
ROCHELLE*      CLOUDY    24  18  78 S10       30.36S WCI  13
DE KALB*       CLOUDY    23  16  74 S12       30.36S WCI  12
PERU*          CLOUDY    25  18  76 S8        30.37F WCI  16
$$

ILZ005-006-012>014-019>023-030200-
NORTHEAST ILLINOIS

CITY           SKY/WX    TMP DP  RH WIND       PRES   REMARKS
CHICAGO-OHARE  CLOUDY    28  16  60 S12       30.35F WCI  18
CHICAGO-MIDWAY CLOUDY    29  14  53 S8        30.37F WCI  21
AURORA         MOCLDY    26  13  57 S10       30.37S WCI  16
LANSING*       CLOUDY    26  17  68 SW6       30.38S WCI  19
JOLIET*        MOCLDY    26  15  64 S5        30.39S WCI  20
WAUKEGAN       CLOUDY    25  19  78 SE7       30.34F WCI  17
DUPAGE AIRPORT MOCLDY    26  15  63 S8        30.35S WCI  18
KANKAKEE*      CLOUDY    24  19  80 S5        30.40S WCI  18
WHEELING       CLOUDY    27  18  69 SE6       30.36F WCI  20
MORRIS*        CLOUDY    24  18  77 S7        30.38S WCI  16
ROMEOVILLE*    MOCLDY    26  16  65 S10       30.37S WCI  16
NORTHERLY ISL    N/A     27  21  78 S6          N/A  WCI  21
$$

LMZ740>746-030200-
SOUTHERN LAKE MICHIGAN

STATION/POSITION SKY/WX   TEMP    WIND        PRES    VSBY  WAVE
                          AIR SEA DIR/SP/G                  HT/PER
                          (F)     (DEG/KT/KT) (MB)    (MI)  (FT/S)
WAUKEGAN HARBOR            27     150/  8/  9   N/A
HARRISON CRIB              26     140/ 12/ 14   N/A
BURNHAM HARBOR             27     150/  4/ 10   N/A
CALUMET HARBOR                    170/  5/  8   N/A
MICHIGAN CITY              27     130/  6/  7   N/A
$$

ILZ025>027-034>036-040-047-049-050-058-095>099-030200-
WEST-CENTRAL ILLINOIS

CITY           SKY/WX    TMP DP  RH WIND       PRES   REMARKS
QUINCY         CLOUDY    30  18  60 SE12      30.27F WCI  20
GALESBURG*     CLOUDY    27  19  72 SE5       30.32F WCI  22
MACOMB*        CLOUDY    28  22  76 SE10      30.33F WCI  19
JACKSONVILLE*  CLOUDY    28  21  74 E7        30.35S WCI  21
PITTSFIELD*    MOCLDY    31  20  64 E7        30.31F WCI  24
$$

ILZ028>032-037-038-041>044-048-051>054-059>061-030200-
CENTRAL ILLINOIS

CITY           SKY/WX    TMP DP  RH WIND       PRES   REMARKS
PONTIAC        CLOUDY    25  20  81 S6        30.39F WCI  18
BLOOMINGTON    MOCLDY    23  19  85 SE6       30.37F WCI  16
DECATUR        MOCLDY    22  18  85 E7        30.36F WCI  13
PEORIA         CLOUDY    29  18  63 SE6       30.36F WCI  23
LACON*         CLOUDY    25  19  79 SE6       30.36F WCI  18
LINCOLN*       CLOUDY    23  20  86 E6        30.39F WCI  16
SPRINGFIELD    CLOUDY    29  18  63 E7        30.35F WCI  22
TAYLORVILLE    MOCLDY    28  19  69 E7        30.35F WCI  21
$$

ILZ033-039-045-046-055>057-062-063-030200-
EAST-CENTRAL ILLINOIS

CITY           SKY/WX    TMP DP  RH WIND       PRES   REMARKS
CHAMPAIGN      MOCLDY    22  16  78 CALM      30.38S
DANVILLE*      MOCLDY    23  18  82 CALM      30.35F
RANTOUL*       MOCLDY    23  19  84 CALM      30.38S
MATTOON        MOCLDY    25  17  72 N3        30.37F
PARIS*         PTCLDY    27  20  75 CALM      30.37F
$$

ILZ079-100>102-030200-
SOUTHWEST ILLINOIS

CITY           SKY/WX    TMP DP  RH WIND       PRES   REMARKS
ALTON          MOCLDY    28  16  59 E5        30.34F WCI  23
BELLEVILLE     PTCLDY    30  21  69 SE3       30.33F
CAHOKIA*       PTCLDY    31  21  66 SE6       30.33F WCI  25
SPARTA*        MOCLDY    29  20  68 E6        30.34F WCI  23
$$

ILZ064>066-069>071-074>076-080>082-084>086-088>090-092>094-030200-
SOUTH-CENTRAL ILLINOIS

CITY           SKY/WX    TMP DP  RH WIND       PRES   REMARKS
CARBONDALE     MOCLDY    32  23  69 NE6       30.35F WCI  26
CAIRO*         MOCLDY    39  23  53 NE6       30.34F WCI  34
EFFINGHAM*     MOCLDY    28  15  57 CALM      30.39S
MARION         MOCLDY    34  21  60 E6        30.36F WCI  29
MT. VERNON     MOCLDY    30  16  55 E3        30.37F
CENTRALIA*     MOCLDY    29  19  66 SE3       30.35F
SALEM*         MOCLDY    31  19  61 E5        30.36F WCI  26
METROPOLIS*    CLOUDY    36  23  59 NE5       30.34F WCI  32
$$

ILZ067-068-072-073-078-083-087-091-030200-
SOUTHEAST ILLINOIS

CITY           SKY/WX    TMP DP  RH WIND       PRES   REMARKS
LAWRENCEVILLE  MOCLDY    29  19  66 NE7       30.37F WCI  22
FLORA*         MOCLDY    28  20  70 CALM      30.38R
FAIRFIELD*     MOCLDY    30  18  61 CALM      30.38R
HARRISBURG*    PTCLDY    32  24  71 NE3       30.37F
ROBINSON*      MOCLDY    29  23  76 CALM      30.39F
CARMI*         PTCLDY    32  28  83 CALM      30.37F
$$

ABBREVIATIONS USED IN REMARKS
   TC - TEMPERATURE IN CELSIUS
  WCI - WIND CHILL INDEX
   HX - HEAT INDEX
  VSB - VISIBILITY
$$




USA.gov is the U.S. government's official web portal to all federal, state and local government web resources and services.